Погода в Шланлах

Россия / Республика Башкортостан     53°52′20″N   55°40′00″E
темп.,
°C
ветер,
м/с
пор.,
м/с
влажн.,
%
обл.,
%
осадки,
мм/ч
давл.,
гПа
погр.,
м
14 апреля, ср
ср1423:00+8ю22907 0.0 103628
02:00+7ююз229316 0.0 103525
05:00+5ю239131 0.0 103537
08:00+6ю248764 0.0 1035122
11:00+11ююв23645 0.0 1033359
14:00+15юв34505 0.0 1031815
17:00+17ююв34521 0.0 1029966
20:00+13ююв35610 0.0 102868
15 апреля, чт
чт1523:00+9ю34700 0.0 102855
02:00+7ююв22720 0.0 102824
05:00+6ююв22710 0.0 102817
08:00+7ююв24681 0.0 1027109
11:00+13ю46500 0.0 1025394
14:00+17ю56390 0.0 1023904
17:00+18ююз35330 0.0 10221216
20:00+14ю22470 0.0 102011
16 апреля, пт
пт1623:00+12ююз11522 0.0 102010
02:00+10ю115830 0.0 101910
05:00+8ю116522 0.0 101910
08:00+9ююв006340 0.0 101910
11:00+15с11475 0.0 1018379
14:00+18с33401 0.0 10181201
17:00+17с55485 0.0 10181462
20:00+12с711735 0.0 1019520
17 апреля, сб
сб1723:00+7с611822 0.0 1020378
02:00+5с59895 0.0 1021300
05:00+3с47927 0.0 1021240
08:00+4с578532 0.0 1022307
11:00+8ссв676866 0.0 1022653
14:00+11ссв78395 0.0 10221353
17:00+11ссв78354 0.0 10221480
20:00+8с59460 0.0 1023272
18 апреля, вс
вс1823:00+5ссз37595 0.0 1024133
02:00+4с38704 0.0 1024173
05:00+2ссз37735 0.0 1025131
08:00+3с410685 0.0 1026393
11:00+7с78515 0.0 10261045
14:00+8с79390 0.0 10261351
17:00+8с794376 0.0 10271729
20:00+6ссв59495 0.0 1028527